Dewpoint
51 51 50 51 51 51 50 50 51 51 52 52 52 52 51 51 52 48 43 35 44 50 53 37 35 26 22 20 23 24 21 21 23 24 24 26 25 28 26 24 23 26 35 35 36
51 51 50 50 51 50 51 51 51 51 52 52 52 51 51 51 48 46 46 49 53 58 44 36 32 17 12 20 22 22 20 21 23 24 23 24 24 24 22 22 22 25 34 34 33
50 51 51 51 52 51 51 52 51 51 52 51 51 51 51 52 40 33 52 54 54 54 43 32 28 32 23 19 20 19 19 20 20 22 23 22 21 22 21 19 21 21 30 33 32
50 50 50 51 51 52 51 52 51 51 51 52 50 50 52 49 4 32 62 57 55 54 34 32 35 33 22 16 15 16 16 17 17 17 19 21 21 21 22 22 23 26 33 33 32
51 50 50 50 51 51 51 51 51 51 50 50 50 50 48 41 36 34 60 55 53 40 34 34 35 29 27 18 16 12 13 13 13 15 17 18 18 19 19 22 25 25 31 33 32
51 51 50 50 51 51 51 51 50 50 50 50 50 50 46 26 21 36 51 52 41 35 33 35 32 28 22 19 16 17 16 16 15 14 15 15 16 18 18 23 24 25 34 34 32
51 51 51 50 50 51 51 51 50 51 51 51 50 50 46 28 35 45 44 40 35 34 30 33 32 24 20 16 19 17 14 15 15 15 14 15 14 15 19 23 25 28 34 31 35
52 51 51 51 51 51 52 52 53 53 52 52 51 48 34 34 39 35 39 36 35 32 30 30 25 19 18 19 16 14 15 14 14 16 15 14 11 14 20 21 23 23 23 24 28
52 52 50 51 51 52 52 52 53 54 54 52 47 44 35 44 43 42 32 32 34 32 31 30 24 19 17 15 13 14 11 12 13 14 14 13 13 16 18 19 21 22 25 25 25
52 52 51 50 51 52 52 53 52 52 53 50 47 40 38 36 37 29 36 33 32 28 21 23 20 17 16 15 11 10 11 12 13 14 16 13 14 16 18 18 17 19 22 25 26
52 52 51 50 51 51 49 45 40 40 46 34 34 35 32 35 35 19 25 28 26 23 20 20 14 13 15 17 16 15 15 14 15 16 16 15 16 16 17 18 16 17 21 21 23
52 52 51 51 50 51 48 38 40 35 36 41 39 35 34 37 36 37 25 20 23 20 21 17 15 16 18 18 18 18 16 16 17 17 17 17 16 16 16 17 18 19 20 21 23
52 52 51 51 50 48 42 41 43 41 35 32 38 37 36 37 36 37 26 25 21 20 19 17 17 19 19 18 17 17 16 17 16 17 17 16 14 15 19 20 19 20 24 22 24
52 51 51 50 44 42 38 42 41 39 32 33 30 33 32 32 25 34 28 24 23 19 19 18 19 17 16 17 17 14 16 17 17 16 12 17 11 15 16 17 18 17 17 19 21
51 51 50 49 38 36 37 41 39 38 27 35 28 28 25 24 24 25 27 23 20 19 19 17 17 18 16 17 26 19 22 20 18 16 15 16 12 15 18 15 16 17 18 18 20
51 50 48 46 46 43 44 39 38 34 28 32 20 18 20 21 23 23 25 25 23 20 19 18 21 21 20 29 30 30 24 19 19 16 13 14 14 13 15 15 16 18 20 21 21
50 49 47 42 26 39 39 38 30 29 33 28 25 21 18 19 21 23 21 20 19 16 21 28 28 32 33 32 33 34 29 21 17 14 14 17 17 16 20 21 24 25 29 28 27
49 48 46 44 42 41 40 34 27 27 28 28 23 22 21 23 23 25 24 23 28 25 29 28 26 31 34 34 32 34 34 31 24 17 17 21 19 17 26 29 30 30 32 29 31
47 38 41 45 45 41 35 29 25 32 30 25 22 22 22 20 22 23 23 27 31 31 27 32 32 36 35 34 35 34 33 37 34 34 29 26 23 24 23 26 28 31 33 34 32
42 38 40 45 42 40 34 28 32 30 28 23 20 22 19 20 22 23 24 30 31 32 31 30 27 32 32 31 35 35 37 29 33 25 24 23 22 21 23 26 29 31 33 34 36
35 31 36 45 43 37 30 30 31 28 26 24 22 22 24 24 24 23 23 27 31 32 33 33 29 26 30 28 28 32 34 35 34 32 25 22 21 26 32 35 33 32 35 35 36
37 33 34 38 36 32 29 29 33 27 28 25 25 27 26 26 23 23 25 27 32 33 31 33 31 27 27 28 31 31 33 34 26 28 32 30 25 33 36 35 35 34 32 35 36
38 34 38 37 30 29 31 31 32 30 29 23 23 25 26 24 20 27 26 30 34 33 34 35 26 21 21 21 26 28 31 33 32 30 27 25 23 34 39 35 35 37 37 34 35
35 32 34 35 32 30 32 31 33 31 25 21 21 24 23 23 25 22 24 28 29 33 38 34 28 23 21 22 26 26 28 32 31 27 26 28 27 28 33 36 38 37 37 35 39
39 35 31 27 29 31 39 37 34 32 28 24 21 24 24 21 21 21 26 27 28 39 38 31 26 27 27 28 29 28 28 27 27 28 26 23 25 29 36 36 36 35 34 32 33
34 34 34 31 29 32 39 38 38 36 32 27 21 21 22 20 22 20 24 24 23 28 29 31 25 30 29 29 28 26 27 27 31 27 28 28 32 37 36 34 33 33 33 32 32
37 38 37 36 34 35 36 39 39 39 35 30 26 25 25 24 26 27 27 26 25 26 24 24 27 24 22 27 28 24 34 35 34 35 36 31 34 35 34 33 33 33 34 33 32
Lifted_Index
13 13 13 12 12 12 11 10 9 8 8 8 9 9 10 11 11 11 11 11 11 11 10 10 9 9 9 8 8 7 6 5 5 5 5 5 5 5 4 3 3 4 4 3 3
13 13 13 12 12 11 11 10 9 8 8 9 9 10 10 11 11 10 9 10 10 9 9 10 10 9 9 8 8 7 6 6 6 6 6 6 5 5 4 3 3 4 4 3 3
13 13 13 12 11 11 10 10 9 9 9 9 10 10 10 10 9 7 7 8 8 8 9 10 10 9 8 8 8 8 7 7 7 8 7 6 6 5 4 4 4 4 4 3 2
13 13 12 12 11 11 10 10 9 9 9 10 10 10 10 9 8 6 5 5 6 7 9 10 9 9 8 8 8 8 8 8 8 8 8 7 6 6 5 5 5 4 4 3 2
13 13 12 11 11 11 11 10 10 10 10 10 10 10 9 8 7 6 4 4 6 8 9 8 8 8 8 8 9 9 9 9 9 8 7 7 7 6 6 6 5 5 4 3 3
13 13 12 12 12 11 11 11 11 11 11 10 10 10 9 8 7 6 5 5 7 8 8 7 7 8 8 8 8 8 8 8 8 8 7 7 6 6 6 6 5 4 3 2 2
13 13 13 12 12 12 12 11 11 11 11 10 10 10 9 8 7 6 5 6 7 8 7 7 7 8 8 7 7 7 7 7 7 7 6 6 5 5 5 5 5 4 3 2 2
13 13 13 13 12 11 11 10 10 10 10 10 10 9 8 8 7 6 5 6 6 6 7 7 7 8 8 7 7 7 6 6 6 6 6 5 5 5 5 5 4 4 3 2 2
13 13 13 13 12 10 9 9 9 9 9 9 9 8 7 6 6 6 6 6 6 6 6 6 7 7 7 6 5 5 5 5 5 5 5 5 5 5 5 5 4 4 4 3 3
13 13 13 13 12 10 9 8 8 8 8 8 8 7 6 6 6 6 7 6 6 6 6 6 6 6 6 6 5 4 5 5 5 5 4 5 6 6 5 4 5 5 4 4 4
12 12 13 13 11 10 8 7 7 7 7 7 8 7 6 6 6 6 7 7 6 6 6 6 5 5 6 6 5 5 5 5 5 5 4 5 6 6 5 4 4 4 4 4 4
11 11 12 12 12 10 8 7 7 7 7 6 7 7 6 6 6 6 6 6 6 6 6 5 5 5 5 5 5 5 5 5 5 4 4 5 5 5 5 4 4 4 4 4 4
10 10 11 11 11 10 8 7 7 7 6 5 6 6 6 6 6 5 6 6 6 6 6 5 5 5 5 4 4 4 4 4 4 4 4 4 4 5 4 4 3 4 4 4 4
9 10 10 11 10 10 8 7 7 7 5 4 5 5 6 5 5 5 6 6 5 5 5 5 5 5 4 4 4 3 3 3 3 3 3 3 3 4 4 3 3 3 3 4 4
9 9 10 10 10 9 8 7 7 6 4 3 4 5 5 5 5 6 6 6 5 5 5 5 5 5 4 3 3 2 2 2 2 2 2 2 2 3 3 3 2 3 3 3 3
9 9 9 9 10 9 8 7 6 5 3 3 4 5 5 5 5 5 6 5 5 5 5 5 5 4 4 3 2 1 1 1 1 1 2 2 2 2 3 3 2 2 2 2 2
9 9 9 9 9 9 7 6 5 4 3 3 4 4 4 4 5 5 5 5 5 5 5 5 5 4 3 2 1 1 1 0 0 1 1 1 1 2 3 3 2 2 2 2 2
9 9 9 9 9 8 7 6 5 4 4 4 4 3 3 4 4 4 4 4 4 4 4 4 4 3 2 1 1 1 0 0 0 0 1 1 2 2 2 2 2 1 2 2 2
9 9 8 8 8 7 6 6 5 5 4 4 3 3 3 3 3 3 3 3 4 4 4 4 4 3 2 1 1 0 0 0 -0 0 1 1 2 2 2 2 1 1 2 2 2
9 9 7 6 6 6 6 6 5 5 5 4 4 4 3 3 3 3 4 4 4 4 4 4 3 3 2 2 1 1 0 -0 -0 -0 0 1 1 1 1 1 1 1 1 2 2
9 8 6 5 5 5 5 5 6 6 6 5 5 5 4 4 4 4 4 4 4 4 4 4 3 3 3 2 2 1 1 -0 -0 -0 -0 0 1 1 1 1 1 0 1 1 1
8 8 7 6 5 5 5 5 6 6 6 6 5 5 5 4 4 4 5 4 4 4 4 4 3 3 3 3 2 1 1 0 -0 -0 0 0 1 0 0 0 0 0 0 1 1
7 7 7 6 5 5 5 5 5 6 6 6 6 5 5 5 4 5 5 5 5 4 4 4 3 3 3 2 2 1 1 1 0 0 0 1 1 0 0 1 1 1 1 0 0
7 7 7 6 6 5 5 5 4 5 5 6 6 6 5 5 5 5 5 6 5 5 4 3 3 2 2 2 2 2 1 1 0 0 1 1 0 1 1 1 1 1 1 0 0
8 7 7 6 5 5 5 4 4 4 5 5 5 6 6 5 5 5 6 6 6 5 4 3 3 2 2 2 2 2 2 1 1 0 0 0 0 1 1 1 1 1 1 0 0
9 9 8 6 5 5 5 4 4 4 4 4 5 6 6 6 6 6 6 6 6 5 4 3 3 2 2 2 2 2 1 1 0 0 0 0 0 1 1 1 1 1 1 1 1
10 10 9 6 5 5 4 4 4 4 4 4 5 6 6 6 6 6 6 6 6 6 5 4 3 2 2 2 2 1 1 0 0 0 0 0 0 1 1 1 1 2 2 2 2